Home   Weather   Darwin   Past weeks
Flag for Australia

Past Weather in Darwin, Northern Territory, Australia — Yesterday and Last 2 Weeks

Now
75 °F

Clear.


Feels Like: 76 °F
Forecast: 92 / 76 °F
Wind: 3 mph from Southeast

Location: Darwin Airport

Current Time: May 22, 2019 at 4:21:07 am

Latest Report: May 22, 2019 at 3:30 am


Visibility: N/A

Pressure: 29.92 "Hg

Humidity: 78%

Dew Point: 68 °F

Location of DarwinLocation

Past Weather in Darwin — Graph

°F

Darwin Temperature Yesterday

Maximum temperature yesterday: 93 °F (at 2:30 pm)
Minimum temperature yesterday: 77 °F (at 2:00 am)
Average temperature yesterday: 83 °F

High & Low Weather Summary for the Past Weeks

 TemperatureHumidityPressure
High93 °F (May 16, 2:30 pm)94% (May 14, 5:30 am)30.04 "Hg (May 14, 5:30 am)
Low70 °F (May 12, 7:30 am)21% (May 12, 10:30 am)29.77 "Hg (May 8, 3:00 pm)
Average80 °F59%29.90 "Hg
* Reported May 7 2:30 am — May 22 3:00 am, Darwin. Weather by CustomWeather, © 2019

Note: Actual official high and low records may vary slightly from our data, if they occured in-between our weather recording intervals... More about our weather records

Advertising

Darwin Weather History for the Previous 24 Hours

Scroll right to see more
 ConditionsComfort  
Time TempWeatherWind HumidityBarometerVisibility
3:00 am
Wed, May 22
73 °FClear.5 mph89%29.92 "HgN/A
2:30 am75 °FClear.3 mph78%29.95 "HgN/A
2:00 am75 °FClear.3 mph78%29.95 "HgN/A
1:30 am75 °FClear.3 mph83%29.95 "HgN/A
1:00 am75 °FClear.5 mph89%29.95 "HgN/A
12:30 am77 °FClear.6 mph83%29.95 "HgN/A
12:00 am77 °FClear.6 mph83%29.95 "Hg10 mi
11:30 pm
Tue, May 21
79 °FClear.6 mph74%29.95 "Hg10 mi
11:00 pm79 °FClear.3 mph74%29.95 "Hg10 mi
10:30 pm77 °FClear.2 mph83%29.95 "Hg10 mi
10:00 pm79 °FClear.2 mph84%29.95 "Hg10 mi
9:30 pm79 °FClear.2 mph79%29.95 "Hg10 mi
9:00 pm79 °FClear.3 mph79%29.95 "Hg10 mi
8:30 pm81 °FClear.6 mph74%29.92 "Hg10 mi
8:00 pm81 °FClear.6 mph74%29.92 "Hg10 mi
7:30 pm82 °FClear.6 mph70%29.92 "Hg10 mi
7:00 pm82 °FClear.8 mph70%29.89 "Hg10 mi
6:30 pm84 °FSunny.9 mph66%29.89 "Hg10 mi
6:00 pm88 °FSunny.10 mph43%29.86 "Hg10 mi
5:30 pm90 °FSunny.10 mph33%29.86 "Hg10 mi
5:00 pm91 °FSunny.12 mph30%29.86 "Hg10 mi
4:30 pm91 °FSunny.13 mph30%29.83 "Hg10 mi
4:00 pm91 °FSunny.15 mph32%29.83 "Hg10 mi
3:30 pm91 °FSunny.15 mph28%29.83 "Hg10 mi
3:00 pm91 °FSunny.16 mph28%29.83 "Hg10 mi
2:30 pm93 °FSunny.17 mph28%29.86 "Hg10 mi
2:00 pm91 °FSunny.17 mph28%29.86 "Hg10 mi
1:30 pm91 °FSunny.17 mph30%29.89 "Hg10 mi
1:00 pm90 °FSunny.17 mph38%29.89 "Hg10 mi
12:30 pm90 °FSunny.17 mph38%29.92 "Hg10 mi
12:00 pm88 °FSunny.15 mph40%29.92 "Hg10 mi
11:30 am88 °FSunny.17 mph46%29.95 "Hg10 mi
11:00 am88 °FPassing clouds.17 mph46%29.95 "HgN/A
10:30 am86 °FPassing clouds.15 mph49%29.95 "HgN/A
10:00 am84 °FPassing clouds.17 mph55%29.95 "HgN/A
9:30 am82 °FPassing clouds.18 mph66%29.98 "HgN/A
9:00 am81 °FPassing clouds.13 mph70%29.98 "HgN/A
8:30 am81 °FPassing clouds.14 mph70%29.95 "HgN/A
8:00 am79 °FPassing clouds.7 mph74%29.95 "HgN/A
7:30 am77 °FPassing clouds.7 mph79%29.95 "HgN/A
7:00 am77 °FClear.6 mph79%29.95 "Hg10 mi
6:30 am77 °FClear.6 mph79%29.95 "Hg10 mi
6:00 am77 °FClear.6 mph83%29.92 "Hg10 mi
5:30 am77 °FClear.6 mph83%29.92 "Hg10 mi
5:00 am79 °FOvercast.5 mph79%29.92 "HgN/A
4:30 am79 °FOvercast.5 mph84%29.92 "HgN/A
4:00 am79 °FOvercast.3 mph84%29.92 "HgN/A
Weather by CustomWeather, © 2019

See weather overview